New Orleans, LA

2:38 PM CDT on August 27, 2016 (GMT -0500)
Lakefront

Weather History for KNEW - October, 2013

Change the Weather History Date:

Saturday, October 5, 2013

  Actual Average Record
Temperature  
Mean Temperature 82 °F 75 °F  
Max Temperature 89 °F 83 °F 92 °F (1986)
Min Temperature 75 °F 66 °F 46 °F (1987)
Degree Days  
Heating Degree Days 0 0  
Month to date heating degree days 0 0  
Since 1 July heating degree days 0 0  
Cooling Degree Days 17 10  
Month to date cooling degree days 79 52  
Year to date cooling degree days 2726 2741  
Growing Degree Days 33 (Base 50)    
Moisture  
Dew Point 74 °F    
Average Humidity 78    
Maximum Humidity 94    
Minimum Humidity 61    
Precipitation  
Precipitation 0.19 in 0.11 in 2.04 in (1960)
Month to date precipitation 0.63 0.57  
Year to date precipitation 59.62 49.75  
Snow  
Snow 0.00 in - - ()
Month to date snowfall 0.0  
Since 1 July snowfall 0.0  
Since 1 September snowfall 0.0  
Snow Depth 0.00 in    
Sea Level Pressure  
Sea Level Pressure 29.94 in    
Wind  
Wind Speed 8 mph (SE)    
Max Wind Speed 22 mph    
Max Gust Speed 28 mph    
Visibility 8 miles    
Events Rain    
T = Trace of Precipitation, MM = Missing Value Source: NWS Daily Summary

Daily Weather History Graph

Daily Weather History Graph

Search for Another Location

Airport or City:

Trip Planner

Search our weather history database for the weather conditions in past years. The results will help you decide how hot, cold, wet, or windy it might be!

Date:

Astronomy

Oct. 05, 2013 Rise Set
Actual Time 6:55 AM CDT 6:40 PM CDT
Civil Twilight 6:32 AM CDT 7:04 PM CDT
Nautical Twilight 6:04 AM CDT 7:32 PM CDT
Astronomical Twilight 5:36 AM CDT 7:59 PM CDT
Moon 7:30 AM CDT (10/5) 7:06 PM CDT (10/5)
Length of Visible Light 12h 32m
Length of Day
11h 44m
New Moon, 1% of the Moon is Illuminated
Oct 5
New Moon
Oct 11
First Quarter
Oct 18
Full
Oct 26
Last Quarter
Nov 3
New

Hourly Weather History & Observations

Time (CDT) Temp. Heat Index Dew Point Humidity Pressure Visibility Wind Dir Wind Speed Gust Speed Precip Events Conditions
12:53 AM 80.1 °F 85.1 °F 75.0 °F 85% 29.97 in 9.0 mi ESE 9.2 mph - N/A   Clear
1:53 AM 80.1 °F 85.1 °F 75.0 °F 85% 29.96 in 9.0 mi ESE 9.2 mph - N/A   Clear
2:53 AM 80.1 °F 85.4 °F 75.9 °F 87% 29.94 in 8.0 mi ESE 9.2 mph - N/A   Clear
3:53 AM 80.1 °F 85.1 °F 75.0 °F 85% 29.94 in 9.0 mi ESE 10.4 mph - N/A   Clear
4:53 AM 80.1 °F 85.4 °F 75.9 °F 87% 29.94 in 8.0 mi ESE 9.2 mph - N/A   Partly Cloudy
5:41 AM 80.6 °F 86.2 °F 75.2 °F 84% 29.96 in 9.0 mi East 9.2 mph - N/A   Mostly Cloudy
5:50 AM 80.6 °F 86.2 °F 75.2 °F 84% 29.96 in 9.0 mi East 10.4 mph - N/A   Scattered Clouds
5:53 AM 80.1 °F 85.4 °F 75.9 °F 87% 29.94 in 9.0 mi East 10.4 mph - N/A   Scattered Clouds
6:53 AM 80.1 °F 85.4 °F 75.9 °F 87% 29.95 in 10.0 mi East 10.4 mph - N/A   Clear
7:53 AM 81.0 °F 87.3 °F 75.9 °F 85% 29.96 in 10.0 mi East 9.2 mph - N/A   Mostly Cloudy
8:19 AM 82.4 °F 89.5 °F 75.2 °F 79% 29.99 in 10.0 mi SE 15.0 mph - N/A   Overcast
8:29 AM 80.6 °F 85.4 °F 73.4 °F 79% 29.99 in 10.0 mi SE 15.0 mph - N/A   Overcast
8:53 AM 82.0 °F 87.4 °F 73.0 °F 74% 29.98 in 10.0 mi SE 13.8 mph - N/A   Overcast
9:53 AM 84.0 °F 91.2 °F 73.9 °F 72% 29.98 in 10.0 mi SE 16.1 mph 23.0 mph N/A   Mostly Cloudy
10:53 AM 86.0 °F 92.2 °F 72.0 °F 63% 29.97 in 10.0 mi SE 19.6 mph 25.3 mph N/A   Clear
11:53 AM 84.9 °F 90.1 °F 71.1 °F 63% 29.97 in 10.0 mi SE 15.0 mph 25.3 mph N/A   Mostly Cloudy
12:53 PM 84.9 °F 90.7 °F 72.0 °F 65% 29.95 in 10.0 mi SSE 15.0 mph - N/A   Overcast
1:53 PM 89.1 °F 94.1 °F 70.0 °F 53% 29.92 in 10.0 mi SE 15.0 mph 21.9 mph N/A   Partly Cloudy
2:53 PM 88.0 °F 92.9 °F 70.0 °F 55% 29.90 in 10.0 mi SE 18.4 mph 26.5 mph N/A   Partly Cloudy
3:49 PM 78.8 °F - 75.2 °F 89% 29.93 in 1.5 mi SSE 17.3 mph 28.8 mph 0.07 in Rain Rain
3:53 PM 78.1 °F - 75.0 °F 90% 29.91 in 1.0 mi SSE 11.5 mph 25.3 mph 0.13 in Rain Heavy Rain
3:56 PM 78.8 °F - 75.2 °F 89% 29.93 in 0.8 mi SSE 13.8 mph - 0.02 in Rain Rain
4:04 PM 78.8 °F - 75.2 °F 89% 29.93 in 1.2 mi SE 18.4 mph 24.2 mph 0.11 in Rain Rain
4:13 PM 78.8 °F - 75.2 °F 89% 29.93 in 1.8 mi SE 13.8 mph 24.2 mph 0.13 in Rain Light Rain
4:15 PM 78.8 °F - 73.4 °F 83% 29.93 in 3.0 mi SE 12.7 mph - 0.13 in Rain Light Rain
4:23 PM 78.8 °F - 75.2 °F 89% 29.93 in 6.0 mi ESE 12.7 mph - 0.13 in Rain Light Rain
4:47 PM 77.0 °F - 73.4 °F 89% 29.93 in 1.8 mi SE 20.7 mph 31.1 mph 0.17 in Rain Rain
4:53 PM 77.0 °F - 73.0 °F 88% 29.91 in 1.8 mi SE 17.3 mph 25.3 mph 0.18 in Rain Light Rain
5:00 PM 77.0 °F - 73.4 °F 89% 29.93 in 3.0 mi SE 11.5 mph 21.9 mph 0.01 in Rain Light Rain
5:53 PM 78.1 °F - 73.0 °F 84% 29.90 in 10.0 mi ESE 9.2 mph - 0.01 in   Partly Cloudy
6:53 PM 79.0 °F - 73.9 °F 84% 29.89 in 10.0 mi ESE 10.4 mph - N/A   Clear
7:53 PM 79.0 °F - 73.9 °F 84% 29.90 in 10.0 mi SE 9.2 mph - N/A   Partly Cloudy
8:53 PM 78.1 °F - 73.0 °F 84% 29.91 in 10.0 mi ESE 6.9 mph - N/A   Clear
9:53 PM 78.1 °F - 73.0 °F 84% 29.92 in 10.0 mi SE 3.5 mph - N/A   Clear
10:53 PM 79.0 °F - 73.9 °F 84% 29.91 in 10.0 mi ESE 8.1 mph - N/A   Clear
11:53 PM 78.1 °F - 73.9 °F 87% 29.88 in 10.0 mi SE 3.5 mph - N/A   Scattered Clouds